Location: Almena City Lake
(39.8850°N, 99.6804°W)
Time: 06:21:46
(UTC+00:00)

Sich 1 - Pass Details

Date: 18 February 2020
Orbit: 595 x 625 km, 82.5° (Epoch: 30 March)

Event Time Altitude Azimuth Distance (km) Brightness Sun altitude
Rises 01:30:46 0° 191° (S) 2,849 6.6 -14.8°
Reaches altitude 10° 01:32:59 10° 193° (SSW) 1,945 5.8 -15.3°
Maximum altitude 01:37:17 72° 278° (W) 634 3.2 -16.1°
Drops below altitude 10° 01:41:34 10° 3° (N) 1,945 5.6 -16.9°
Sets 01:43:47 0° 6° (N) 2,849 6.4 -17.3°
